Regional Weather Roundup
Issued by NWS Little Rock, AR

Home | Current Version | Previous Version | Text Only | Print | Product List | Glossary Off
Versions: 1 2 3 4 5 6 7 8 9 10 11 12 13 14 15 16 17 18 19 20 21 22 23 24 25 26 27

000
ASUS44 KLZK 161205
RWRLZK

WEATHER ROUNDUP FOR ARKANSAS
NATIONAL WEATHER SERVICE LITTLE ROCK AR
700 AM CDT WED APR 16 2014

NOTE: "FAIR" INDICATES FEW OR NO CLOUDS BELOW 12,000 FEET WITH NO
SIGNIFICANT WEATHER AND/OR OBSTRUCTIONS TO VISIBILITY.

ARZ001-003-010-029-161300-
NORTHWEST ARKANSAS

CITY           SKY/WX    TMP DP  RH WIND       PRES   REMARKS
FAYETTEVILLE   CLEAR     40  29  64 S6        30.11R
6HR MIN TEMP:  33; 6HR MAX TEMP:  43;

FORT SMITH     PTCLDY    41  33  73 E9        30.16R
6HR MIN TEMP:  40; 6HR MAX TEMP:  48;

HARRISON       CLEAR     36  30  79 SE10      30.14R
6HR MIN TEMP:  36; 6HR MAX TEMP:  38;

BENTONVILLE    CLEAR     39  27  60 S10       30.09S
6HR MIN TEMP:  37; 6HR MAX TEMP:  41;

ROGERS         CLEAR     42  29  59 SE14      30.10R
6HR MIN TEMP:  40; 6HR MAX TEMP:  42;

HIGHFILL       PTCLDY    40  29  64 SE14      30.08R
6HR MIN TEMP:  37; 6HR MAX TEMP:  41;

SPRINGDALE     CLEAR     39  28  65 SE8       30.12R
$$

ARZ004-005-016-161300-
NORTH CENTRAL ARKANSAS

CITY           SKY/WX    TMP DP  RH WIND       PRES   REMARKS
BATESVILLE     CLEAR     36  30  80 SE5       30.24R
6HR MIN TEMP:  36; 6HR MAX TEMP:  41;

FLIPPIN        CLEAR     36  25  64 SE3       30.18R
6HR MIN TEMP:  34; 6HR MAX TEMP:  41;

MTN HOME       CLEAR     36  28  73 SE5       30.17R
6HR MIN TEMP:  35; 6HR MAX TEMP:  40;

$$

ARZ040-041-161300-
WEST CENTRAL ARKANSAS

CITY           SKY/WX    TMP DP  RH WIND       PRES   REMARKS
MENA           CLEAR     36  36 100 E3        30.18R
MOUNT IDA      CLEAR     41  30  65 CALM      30.18R
6HR MIN TEMP:  35; 6HR MAX TEMP:  46;

$$

ARZ009-017-025-026-028-161300-
NORTHEAST ARKANSAS

CITY           SKY/WX    TMP DP  RH WIND       PRES   REMARKS
CORNING        FAIR      36  32  87 SE8       30.28R
JONESBORO      CLEAR     36  30  79 E5        30.27R
6HR MIN TEMP:  33; 6HR MAX TEMP:  38;

NEWPORT        CLEAR     37  31  79 SE7       30.27R
6HR MIN TEMP:  37; 6HR MAX TEMP:  39;

BLYTHEVILLE    CLEAR     38  25  59 SE8       30.29R
6HR MIN TEMP:  35; 6HR MAX TEMP:  41;

$$

ARZ022-023-033-042-044-161300-
CENTRAL ARKANSAS

CITY           SKY/WX    TMP DP  RH WIND       PRES   REMARKS
LITTLE ROCK    MOCLDY    39  32  76 CALM      30.24R
6HR MIN TEMP:  38; 6HR MAX TEMP:  43;

N LITTLE ROCK    N/A     40  33  77 SE7       30.24R
6HR MIN TEMP:  39; 6HR MAX TEMP:  44;

JACKSONVILLE   CLEAR     34  32  94 NE2       30.24R
6HR MIN TEMP:  33; 6HR MAX TEMP:  40;

SEARCY         CLEAR     33  32  96 NW3       30.26R
6HR MIN TEMP:  32; 6HR MAX TEMP:  40;

HOT SPRINGS    CLEAR     38  31  76 E5        30.22R
6HR MIN TEMP:  37; 6HR MAX TEMP:  42;

RUSSELLVILLE   CLEAR     39  33  79 E3        30.20R
6HR MIN TEMP:  39; 6HR MAX TEMP:  44;

CLINTON        FAIR      32  32 100 CALM      30.24R
$$

ARZ036-161300-
EAST ARKANSAS

CITY           SKY/WX    TMP DP  RH WIND       PRES   REMARKS
WEST MEMPHIS   CLEAR     36  27  69 SE8       30.27R
6HR MIN TEMP:  33; 6HR MAX TEMP:  40;

$$

ARZ050-053-066-070-073-161300-
SOUTHWEST ARKANSAS

CITY           SKY/WX    TMP DP  RH WIND       PRES   REMARKS
ARKADELPHIA    FAIR      37  36  96 CALM      30.24R
6HR MIN TEMP:  37; 6HR MAX TEMP:  44;

CAMDEN         CLEAR     32  32 100 MISG      30.24R
TEXARKANA      CLEAR     39  32  76 SE6       30.20R
6HR MIN TEMP:  39; 6HR MAX TEMP:  45;

EL DORADO      CLEAR     33  32  96 CALM      30.23R
6HR MIN TEMP:  32; 6HR MAX TEMP:  40;

DE QUEEN       CLEAR     36  34  92 NE3       30.19R
6HR MIN TEMP:  36; 6HR MAX TEMP:  38;

$$

ARZ056-057-069-161300-
SOUTHEAST ARKANSAS

CITY           SKY/WX    TMP DP  RH WIND       PRES   REMARKS
PINE BLUFF     CLEAR     36  32  85 SE6       30.25R
6HR MIN TEMP:  36; 6HR MAX TEMP:  42;

STUTTGART      CLEAR     39  30  70 SE5       30.25R
6HR MIN TEMP:  39; 6HR MAX TEMP:  43;

MONTICELLO     CLEAR     37  29  72 E5        30.24R
6HR MIN TEMP:  35; 6HR MAX TEMP:  41;


$$





USA.gov is the U.S. government's official web portal to all federal, state and local government web resources and services.